Content
SEND FEEDBACK

Daily
Averages
Monthly
Summary
Mexico

CANCUN, QUINTANA ROO


Home > North America > Mexico > Quintana Roo
Elevation: 9 meters     Latitude: 21 09N     Longitude: 086 49W

WEATHER
 
SELECT A DAY
Number of Records: 163,746;   Date Range: 1/1/95 - 7/30/14
 
SHARE

PRINT THIS DATA

[ ← Previous Day ]
WEATHER ALMANAC - 25 OCTOBER, 2013
[ Next Day → ]
[ °F ]   °C
Weather ElementAverageHighLow
Temperature24.9 °C28 °C (11:40 am)23 °C (2:43 am)
Dewpoint23.2 °C25 °C (1:44 am)22 °C (2:43 am)
Humidity90.5 %100 % (3:46 am)79 % (11:40 am)
Barometer1016.3 hPa1017.6 hPa (10:42 am)1013.9 hPa (3:46 am)
Wind Speed10 km/h18.5 km/h (1:44 am)
Weather ElementAverage
Visibility8.5 km
Wind DirectionE (89.6 °)

Weather ElementTotal
Precipitation---
Cooling Degree Days7.2 (Base 18.3)
Growing Degree Days15.5 (Base 10)
Averaged from 25 records on 25 October, 2013
WEATHER CONDITIONS BREAKOUT
WIND DIRECTION BREAKOUT
WEATHER BY HOUR - 25 OCTOBER, 2013
[ °F ]   °C
Local TimeTemperatureDewpointHumidityBarometerVisibilityWind DirectionWind SpeedGust SpeedPrecipitationEventsConditions
1:44 AM27 °C25 °C89 %1015.6 hPa11.3 kmEast (90°)18.5 km/hOvercast
2:43 AM23 °C22 °C94 %1014.9 hPa9.7 kmNNE (20°)9.3 km/hRainLight Rain
3:46 AM23 °C23 °C100 %1013.9 hPa8 kmNE (40°)9.3 km/hRainLight Rain
4:45 AM23 °C23 °C100 %1015.6 hPa8 kmNE (50°)14.8 km/hRainLight Rain
5:44 AM23 °C22 °C94 %1015.9 hPa8 kmNW (320°)9.3 km/hRainLight Rain
6:43 AM23 °C22 °C94 %1014.9 hPa9.7 kmNorth (350°)9.3 km/hRainLight Rain
7:30 AM24 °C23 °C94 %1016.3 hPa9.7 kmNorth (10°)3.7 km/hOvercast
7:44 AM24 °C23 °C94 %1016.6 hPa9.7 kmNNW (340°)5.6 km/hOvercast
8:40 AM26 °C24 °C89 %1016.9 hPa9.7 kmNE (50°)7.4 km/hOvercast
9:45 AM27 °C24 °C84 %1017.3 hPa9.7 kmENE (70°)9.3 km/hOvercast
10:42 AM27 °C25 °C89 %1017.6 hPa9.7 kmNNE (20°)5.6 km/hOvercast
11:40 AM28 °C24 °C79 %1017.6 hPa9.7 kmNE (40°)18.5 km/hOvercast
12:45 PM27 °C23 °C79 %1017.3 hPa9.7 kmENE (70°)11.1 km/hOvercast
1:20 PM25 °C23 °C89 %1017.6 hPa4.8 kmNE (40°)13 km/hRainRain
1:42 PM24 °C23 °C94 %1016.6 hPa6.4 kmNNE (20°)18.5 km/hRainLight Rain
2:45 PM24 °C23 °C94 %1016.3 hPa6.4 kmNorth (350°)9.3 km/hOvercast
3:50 PM24 °C23 °C94 %1016.6 hPa8 kmCalmOvercast
4:41 PM25 °C24 °C94 %1015.2 hPa8 kmCalmOvercast
5:40 PM25 °C23 °C89 %1015.2 hPa8 kmNNE (30°)5.6 km/hOvercast
6:40 PM24 °C24 °C100 %1015.9 hPa8 kmENE (60°)11.1 km/hRainLight Rain
7:42 PM25 °C23 °C89 %1016.6 hPa8 kmENE (60°)13 km/hOvercast
8:40 PM25 °C23 °C89 %1016.3 hPa8 kmNE (40°)9.3 km/hOvercast
9:42 PM25 °C23 °C89 %1016.3 hPa8 kmENE (60°)11.1 km/hOvercast
10:42 PM26 °C23 °C83 %1016.6 hPa8 kmENE (70°)11.1 km/hOvercast
11:44 PM27 °C23 °C79 %1015.6 hPa8 kmNE (40°)16.7 km/hOvercast
Hourly data recorded from MMUN, located 0 kilometers away from Cancun, Quintana Roo







STORIES FROM OUR PARTNERS